Regional Weather Roundup
Issued by NWS

Home | Current Version | Previous Version | Text Only | Print | Product List | Glossary On
Versions: 1 2 3 4 5 6 7 8 9 10 11 12 13 14 15 16 17 18 19 20 21 22 23 24 25 26 27 28 29 30 31 32 33 34 35 36 37 38 39 40 41 42 43 44 45 46 47 48 49 50
969
ASUS44 KLIX 231710
RWRLA
LOUISIANA WEATHER ROUNDUP
NATIONAL WEATHER SERVICE NEW ORLEANS LA
1200 PM CDT THU OCT 23 2014

NOTE: "FAIR" INDICATES FEW OR NO CLOUDS BELOW 12,000 FEET WITH NO
      SIGNIFICANT WEATHER AND/OR OBSTRUCTIONS TO VISIBILITY.
      SKY/WX - SKY CONDITION AND SIGNIFICANT WEATHER.
      TMP - AIR TEMPERATURE.    DP   - DEWPOINT TEMPERATURE.
      RH  - RELATIVE HUMIDITY.  PRES - PRESSURE.
      HX  - HEAT INDEX.         WCI  - WIND CHILL INDEX.

*  THESE STATIONS ARE NOT NWS OR FAA STATIONS AND ARE NOT UNDER
   NWS QUALITY CONTROL.

LAZ040-048-061>063-065-066-069-231800-
SOUTHEAST LOUISIANA

CITY           SKY/WX    TMP DP  RH WIND       PRES   REMARKS
N.O. AUDUBON   NOT AVBL
N.O. INTL ARPT MOSUNNY   71  50  47 NE12      30.11F
N.O. LAKEFRONT SUNNY     70  50  49 NE12      30.11F
N.O. DOWNTOWN* FAIR      72  45  37 N8        30.11F
SLIDELL        SUNNY     71  46  40 NE8       30.11F
BATON ROUGE    SUNNY     71  46  40 NE7       30.12S
BOOTHVILLE     SUNNY     74  60  61 NE12      30.08F
BELLE CHASSE   MOSUNNY   72  51  47 NE9       30.10F
BOGALUSA*        N/A     71  45  39 E5        30.14F
NEW ROADS*     FAIR      70  47  44 NE5       30.13F
GONZALES*      FAIR      71  48  45 NE6       30.11S
HAMMOND*       SUNNY     72  43  35 CALM      30.12F
HOUMA*         SUNNY     73  55  53 N9        30.10F
PORT FOURCHON* SUNNY     73  59  60 NE14G21   30.11F

$$

LAZ041-044-053-054-231800-
SOUTHWEST LOUISIANA

CITY           SKY/WX    TMP DP  RH WIND       PRES   REMARKS
LAKE CHARLES   MOSUNNY   73  52  47 NE5       30.14R
LAFAYETTE      SUNNY     71  49  45 VRB6      30.12F
PATTERSON      SUNNY     73  54  49 NE7       30.12F
SALT POINT       N/A     73  52  47 VRB3      30.09S
NEW IBERIA     SUNNY     74  49  41 N6        30.12F
CHENAULT AIRPK PTSUNNY   70  52  52 VRB3      30.14R

$$

LAZ027-028-231800-
CENTRAL LOUISIANA

CITY           SKY/WX    TMP DP  RH WIND       PRES   REMARKS
FORT POLK      CLOUDY    65  50  57 VRB2      30.15S
ALEXANDRIA INT PTSUNNY   66  47  50 CALM      30.15S
ALEXANDRIA     PTSUNNY   63  50  62 VRB3      30.16S

$$

LAZ001-002-231800-
NORTHWEST LOUISIANA

CITY           SKY/WX    TMP DP  RH WIND       PRES   REMARKS
SHREVEPORT     CLOUDY    62  50  64 E7        30.18S
BARKSDALE AFB  CLOUDY    60  50  69 VRB3      30.19S
DTN SHREVEPORT CLOUDY    60  49  66 CALM      30.19S

$$

LAZ014-016-231800-
NORTHEAST LOUISIANA

CITY           SKY/WX    TMP DP  RH WIND       PRES   REMARKS
MONROE           N/A     62  48  60 CALM      30.19
TALLULAH         N/A     64  45  49 MISG      30.17S

$$




USA.gov is the U.S. government's official web portal to all federal, state and local government web resources and services.